Danville, IL

4:27 PM CST on December 08, 2016 (GMT -0600)
Vermilion County

Weather History for KDNV - November, 2013

Change the Weather History Date:

Saturday, November 2, 2013

  Actual Average (KCMI) Record (KCMI)
Temperature  
Mean Temperature 40 °F -  
Max Temperature 48 °F 55 °F 78 °F (2016)
Min Temperature 32 °F 36 °F 19 °F (2006)
Degree Days  
Heating Degree Days 25    
Moisture  
Dew Point 37 °F    
Average Humidity 85    
Maximum Humidity 97    
Minimum Humidity 68    
Precipitation  
Precipitation 0.00 in - - ()
Sea Level Pressure  
Sea Level Pressure 29.93 in    
Wind  
Wind Speed 7 mph (WNW)    
Max Wind Speed 15 mph    
Max Gust Speed 20 mph    
Visibility 8 miles    
Events      
Averages and records for this station are not official NWS values.
T = Trace of Precipitation, MM = Missing Value Source: NWS Daily Summary

Daily Weather History Graph

Daily Weather History Graph

Search for Another Location

Airport or City:

Trip Planner

Search our weather history database for the weather conditions in past years. The results will help you decide how hot, cold, wet, or windy it might be!

Date:

Astronomy

Nov. 02, 2013 Rise Set
Actual Time 7:21 AM CDT 5:46 PM CDT
Civil Twilight 6:52 AM CDT 6:14 PM CDT
Nautical Twilight 6:20 AM CDT 6:46 PM CDT
Astronomical Twilight 5:49 AM CDT 7:18 PM CDT
Moon 6:18 AM CDT (11/2) 5:17 PM CDT (11/2)
Length of Visible Light 11h 21m
Length of Day
10h 24m
Waning Crescent, 1% of the Moon is Illuminated
Nov 2
Waning Crescent
Nov 3
New
Nov 9
First Quarter
Nov 17
Full
Nov 25
Last Quarter

Hourly Weather History & Observations

Time (CDT) Temp. Windchill Dew Point Humidity Pressure Visibility Wind Dir Wind Speed Gust Speed Precip Events Conditions
12:15 AM 43.5 °F 39.4 °F 39.9 °F 87% 29.76 in 10.0 mi West 6.9 mph - N/A   Mostly Cloudy
12:35 AM 42.1 °F 37.7 °F 38.5 °F 87% 29.76 in 10.0 mi West 6.9 mph - N/A   Clear
12:55 AM 40.5 °F 37.3 °F 37.4 °F 89% 29.76 in 10.0 mi WSW 4.6 mph - N/A   Scattered Clouds
1:15 AM 40.1 °F 36.9 °F 37.0 °F 89% 29.76 in 7.0 mi WSW 4.6 mph - N/A   Overcast
1:35 AM 40.5 °F 37.3 °F 37.6 °F 89% 29.76 in 10.0 mi WSW 4.6 mph - N/A   Scattered Clouds
1:55 AM 40.5 °F 36.5 °F 37.6 °F 89% 29.76 in 10.0 mi WSW 5.8 mph - N/A   Scattered Clouds
2:15 AM 40.1 °F 36.1 °F 37.4 °F 90% 29.77 in 10.0 mi WSW 5.8 mph - N/A   Mostly Cloudy
2:35 AM 39.6 °F 35.4 °F 36.9 °F 90% 29.77 in 7.0 mi WSW 5.8 mph - N/A   Overcast
2:55 AM 39.2 °F 35.9 °F 36.5 °F 90% 29.77 in 10.0 mi WSW 4.6 mph - N/A   Mostly Cloudy
3:15 AM 39.4 °F 36.1 °F 36.9 °F 91% 29.76 in 7.0 mi WSW 4.6 mph - N/A   Mostly Cloudy
3:35 AM 39.6 °F 35.4 °F 37.0 °F 91% 29.76 in 10.0 mi WSW 5.8 mph - N/A   Mostly Cloudy
3:55 AM 39.7 °F 36.5 °F 37.4 °F 91% 29.77 in 10.0 mi WSW 4.6 mph - N/A   Scattered Clouds
4:15 AM 40.1 °F 36.9 °F 37.4 °F 90% 29.77 in 10.0 mi West 4.6 mph - N/A   Mostly Cloudy
4:35 AM 39.7 °F 35.6 °F 37.6 °F 92% 29.78 in 10.0 mi West 5.8 mph - N/A   Overcast
4:55 AM 39.2 °F 35.0 °F 37.4 °F 93% 29.78 in 10.0 mi West 5.8 mph - N/A   Mostly Cloudy
5:15 AM 38.8 °F 33.8 °F 37.2 °F 94% 29.79 in 10.0 mi West 6.9 mph - N/A   Scattered Clouds
5:35 AM 39.0 °F 34.0 °F 37.4 °F 94% 29.79 in 10.0 mi West 6.9 mph - N/A   Scattered Clouds
5:55 AM 38.1 °F 33.7 °F 36.5 °F 94% 29.80 in 10.0 mi West 5.8 mph - N/A   Clear
6:15 AM 37.8 °F 33.3 °F 36.5 °F 95% 29.80 in 7.0 mi WNW 5.8 mph - N/A   Clear
6:35 AM 37.4 °F 32.8 °F 36.1 °F 95% 29.81 in 7.0 mi WNW 5.8 mph - N/A   Clear
6:55 AM 37.4 °F 32.1 °F 36.5 °F 97% 29.82 in 7.0 mi WNW 6.9 mph - N/A   Clear
7:15 AM 37.4 °F 32.1 °F 36.1 °F 95% 29.83 in 7.0 mi WNW 6.9 mph - N/A   Clear
7:35 AM 37.4 °F 32.1 °F 36.1 °F 95% 29.83 in 7.0 mi WNW 6.9 mph - N/A   Clear
7:55 AM 37.4 °F 32.8 °F 36.5 °F 97% 29.84 in 7.0 mi WNW 5.8 mph - N/A   Clear
8:15 AM 38.3 °F 32.5 °F 37.0 °F 95% 29.85 in 5.0 mi WNW 8.1 mph - N/A   Clear
8:35 AM 39.2 °F 33.6 °F 38.1 °F 96% 29.86 in 5.0 mi WNW 8.1 mph - N/A   Clear
8:55 AM 40.8 °F 34.5 °F 38.5 °F 91% 29.87 in 7.0 mi NW 10.4 mph - N/A   Clear
9:15 AM 41.9 °F 37.5 °F 38.7 °F 88% 29.88 in 5.0 mi NW 6.9 mph - N/A   Clear
9:35 AM 43.7 °F 39.1 °F 39.2 °F 84% 29.88 in 7.0 mi NNW 8.1 mph - N/A   Clear
9:55 AM 45.1 °F 41.4 °F 39.4 °F 80% 29.88 in 7.0 mi NNW 6.9 mph - N/A   Clear
10:15 AM 46.6 °F - 39.4 °F 76% 29.89 in 7.0 mi NW 10.4 mph - N/A   Clear
10:35 AM 47.5 °F - 40.1 °F 76% 29.90 in 7.0 mi NW 15.0 mph - N/A   Clear
10:55 AM 47.8 °F - 39.4 °F 72% 29.91 in 7.0 mi NW 11.5 mph - N/A   Clear
12:15 PM 47.7 °F - 37.9 °F 69% 29.94 in 7.0 mi NW 11.5 mph 18.4 mph N/A   Overcast
12:35 PM 47.7 °F - 37.6 °F 68% 29.94 in 10.0 mi NW 10.4 mph - N/A   Overcast
12:55 PM 48.6 °F - 38.3 °F 68% 29.94 in 7.0 mi NW 11.5 mph 16.1 mph N/A   Overcast
1:15 PM 48.0 °F - 38.1 °F 69% 29.94 in 7.0 mi WNW 12.7 mph - N/A   Mostly Cloudy
1:35 PM 46.9 °F - 38.7 °F 73% 29.95 in 7.0 mi WNW 13.8 mph 17.3 mph N/A   Mostly Cloudy
1:55 PM 46.4 °F 40.4 °F 38.1 °F 73% 29.95 in 7.0 mi WNW 13.8 mph - N/A   Mostly Cloudy
2:15 PM 45.7 °F 40.2 °F 38.3 °F 75% 29.96 in 7.0 mi WNW 11.5 mph 17.3 mph N/A   Overcast
2:35 PM 45.5 °F 39.2 °F 37.8 °F 74% 29.97 in 7.0 mi NW 13.8 mph - N/A   Overcast
2:55 PM 45.3 °F 38.7 °F 37.2 °F 73% 29.98 in 10.0 mi WNW 15.0 mph 19.6 mph N/A   Overcast
3:15 PM 45.1 °F 39.1 °F 36.7 °F 72% 29.98 in 7.0 mi NW 12.7 mph 18.4 mph N/A   Overcast
3:35 PM 44.8 °F 38.0 °F 35.6 °F 70% 29.99 in 7.0 mi NW 15.0 mph - N/A   Overcast
3:55 PM 44.6 °F 39.7 °F 35.6 °F 71% 30.00 in 10.0 mi NW 9.2 mph - N/A   Overcast
4:15 PM 43.7 °F 36.9 °F 34.9 °F 71% 30.01 in 10.0 mi NW 13.8 mph 18.4 mph N/A   Overcast
4:35 PM 42.8 °F 38.0 °F 35.1 °F 74% 30.01 in 7.0 mi NW 8.1 mph 11.5 mph N/A   Overcast
4:55 PM 42.8 °F 37.0 °F 35.4 °F 75% 30.02 in 7.0 mi WNW 10.4 mph - N/A   Overcast
5:15 PM 42.4 °F 36.1 °F 35.6 °F 77% 30.02 in 7.0 mi NW 11.5 mph - N/A   Scattered Clouds
5:35 PM 42.1 °F 36.6 °F 36.0 °F 79% 30.03 in 10.0 mi NW 9.2 mph - N/A   Mostly Cloudy
5:55 PM 42.1 °F 36.6 °F 36.3 °F 80% 30.03 in 10.0 mi NW 9.2 mph - N/A   Overcast
6:15 PM 42.3 °F 36.8 °F 36.1 °F 79% 30.04 in 10.0 mi NW 9.2 mph - N/A   Overcast
6:35 PM 42.1 °F 37.7 °F 36.1 °F 79% 30.05 in 10.0 mi NW 6.9 mph - N/A   Overcast
6:55 PM 42.1 °F 38.4 °F 36.5 °F 81% 30.06 in 10.0 mi NW 5.8 mph - N/A   Overcast
7:15 PM 41.9 °F 39.0 °F 36.5 °F 81% 30.07 in 10.0 mi WNW 4.6 mph - N/A   Overcast
7:35 PM 41.9 °F 38.2 °F 36.9 °F 82% 30.08 in 10.0 mi WNW 5.8 mph - N/A   Overcast
7:55 PM 41.9 °F 39.0 °F 36.7 °F 82% 30.08 in 10.0 mi NW 4.6 mph - N/A   Overcast
8:15 PM 41.9 °F 39.0 °F 37.0 °F 83% 30.09 in 10.0 mi WNW 4.6 mph - N/A   Overcast
8:35 PM 40.8 °F 36.9 °F 36.3 °F 84% 30.08 in 10.0 mi WNW 5.8 mph - N/A   Mostly Cloudy
8:55 PM 39.2 °F 35.0 °F 35.2 °F 86% 30.09 in 10.0 mi WNW 5.8 mph - N/A   Scattered Clouds
9:15 PM 37.9 °F 34.4 °F 34.5 °F 87% 30.10 in 10.0 mi WNW 4.6 mph - N/A   Clear
9:35 PM 36.7 °F 32.0 °F 33.8 °F 89% 30.11 in 10.0 mi WNW 5.8 mph - N/A   Clear
9:55 PM 35.8 °F 31.9 °F 33.1 °F 90% 30.11 in 7.0 mi WNW 4.6 mph - N/A   Clear
10:15 PM 35.4 °F 30.5 °F 32.9 °F 91% 30.13 in 7.0 mi West 5.8 mph - N/A   Clear
10:35 PM 34.7 °F 30.6 °F 32.4 °F 91% 30.13 in 10.0 mi WNW 4.6 mph - N/A   Clear
10:55 PM 33.8 °F 30.8 °F 32.0 °F 93% 30.13 in 7.0 mi West 3.5 mph - N/A   Clear
11:15 PM 32.5 °F - 31.1 °F 94% 30.13 in 7.0 mi Calm Calm - N/A   Clear
11:35 PM 33.3 °F - 32.0 °F 95% 30.13 in 7.0 mi Calm Calm - N/A   Clear
11:55 PM 32.2 °F - 30.9 °F 95% 30.12 in 5.0 mi Calm Calm - N/A   Clear